LEMUR-2-ANUBHAVTHAKUR

Last updated on Feb. 14, 2018, 4:20 p.m. UTC

1 41873U 16062E   18044.94770441  .00000947  00000-0  54951-4 0  9999
2 41873  51.6480  19.7921 0004042  17.3478 342.7636 15.22180763 67737
UTC
Height (km)
Latitude
Longitude
Inclination
Orbital Period
UTC large
Height (km)
Speed (km/s)
/
Latitude / Longitude
Inclination (degrees)
Orbital Period (minutes)
Azimuth
Elevation
Range (km)
Doppler Factor
iOS Compass Heading
iOS Angle